TimeEDT,TemperatureF,Dew PointF,Humidity,Sea Level PressureIn,VisibilityMPH,Wind Direction,Wind SpeedMPH,Gust SpeedMPH,PrecipitationIn,Events,Conditions,WindDirDegrees,DateUTC
12:56 AM,70.0,64.9,84,30.02,10.0,SE,3.5,-,N/A,,Scattered Clouds,140,2013-05-21 04:56:00
1:27 AM,69.8,66.2,88,30.02,10.0,Calm,Calm,-,N/A,,Mostly Cloudy,0,2013-05-21 05:27:00
1:56 AM,70.0,66.9,90,30.01,10.0,SE,4.6,-,N/A,,Overcast,130,2013-05-21 05:56:00
2:29 AM,69.8,66.2,88,30.01,10.0,Calm,Calm,-,N/A,,Overcast,0,2013-05-21 06:29:00
2:50 AM,69.8,66.2,88,30.02,10.0,Calm,Calm,-,N/A,,Overcast,0,2013-05-21 06:50:00
2:56 AM,70.0,66.9,90,30.01,10.0,Calm,Calm,-,N/A,,Overcast,0,2013-05-21 06:56:00
3:17 AM,69.8,66.2,88,30.02,10.0,Calm,Calm,-,N/A,,Overcast,0,2013-05-21 07:17:00
3:56 AM,70.0,68.0,93,30.01,9.0,Calm,Calm,-,N/A,,Overcast,0,2013-05-21 07:56:00
4:14 AM,71.6,68.0,88,30.02,9.0,Calm,Calm,-,N/A,,Overcast,0,2013-05-21 08:14:00
4:56 AM,71.1,69.1,93,30.02,4.0,WSW,4.6,-,N/A,,Overcast,240,2013-05-21 08:56:00
5:56 AM,71.1,69.1,93,30.02,6.0,WSW,5.8,-,N/A,,Overcast,240,2013-05-21 09:56:00
6:34 AM,71.6,69.8,94,30.03,5.0,WSW,4.6,-,N/A,,Overcast,240,2013-05-21 10:34:00
6:56 AM,71.1,69.1,93,30.02,4.0,SW,4.6,-,N/A,,Overcast,230,2013-05-21 10:56:00
7:56 AM,73.0,69.1,87,30.04,6.0,Calm,Calm,-,N/A,,Mostly Cloudy,0,2013-05-21 11:56:00
8:19 AM,73.4,69.8,88,30.05,7.0,Calm,Calm,-,N/A,,Scattered Clouds,0,2013-05-21 12:19:00
8:56 AM,75.0,69.1,82,30.04,7.0,Calm,Calm,-,N/A,,Scattered Clouds,0,2013-05-21 12:56:00
9:56 AM,78.1,70.0,76,30.05,9.0,SE,5.8,-,N/A,,Mostly Cloudy,140,2013-05-21 13:56:00
10:56 AM,80.1,69.1,69,30.05,6.0,Variable,3.5,-,N/A,,Haze,0,2013-05-21 14:56:00
11:42 AM,80.6,69.8,70,30.05,10.0,South,3.5,-,N/A,,Mostly Cloudy,190,2013-05-21 15:42:00
11:56 AM,82.0,70.0,67,30.04,10.0,Calm,Calm,-,N/A,,Mostly Cloudy,0,2013-05-21 15:56:00
12:03 PM,82.4,69.8,66,30.05,10.0,Variable,3.5,-,N/A,,Mostly Cloudy,0,2013-05-21 16:03:00
12:56 PM,82.9,70.0,65,30.03,10.0,ESE,10.4,-,N/A,,Mostly Cloudy,110,2013-05-21 16:56:00
1:56 PM,84.0,69.1,61,30.00,10.0,ESE,8.1,-,N/A,,Mostly Cloudy,110,2013-05-21 17:56:00
2:35 PM,82.4,68.0,62,30.00,10.0,SE,8.1,-,N/A,Thunderstorm,Thunderstorm,130,2013-05-21 18:35:00
2:56 PM,75.9,64.9,69,30.01,10.0,WNW,10.4,20.7,N/A,Thunderstorm,Thunderstorm,300,2013-05-21 18:56:00
3:22 PM,73.4,60.8,65,29.99,10.0,SW,16.1,26.5,0.00,Rain-Thunderstorm,Light Thunderstorms and Rain,220,2013-05-21 19:22:00
3:56 PM,72.0,64.9,78,29.99,9.0,NNE,5.8,-,0.00,Rain-Thunderstorm,Light Thunderstorms and Rain,20,2013-05-21 19:56:00
4:34 PM,73.4,62.6,69,29.97,10.0,ENE,3.5,-,0.00,Rain,Light Rain,60,2013-05-21 20:34:00
4:56 PM,72.0,66.0,81,29.98,10.0,ENE,4.6,-,0.00,,Mostly Cloudy,60,2013-05-21 20:56:00
5:56 PM,73.0,64.9,76,29.99,10.0,SE,4.6,-,N/A,,Mostly Cloudy,130,2013-05-21 21:56:00
6:56 PM,73.0,68.0,84,29.97,10.0,SW,3.5,-,N/A,,Overcast,220,2013-05-21 22:56:00
7:56 PM,73.0,68.0,84,29.96,10.0,SE,5.8,-,N/A,,Overcast,130,2013-05-21 23:56:00
8:56 PM,71.1,68.0,90,29.97,10.0,SE,5.8,-,N/A,,Mostly Cloudy,130,2013-05-22 00:56:00
9:56 PM,71.1,68.0,90,29.98,10.0,Calm,Calm,-,N/A,,Mostly Cloudy,0,2013-05-22 01:56:00
10:56 PM,71.1,68.0,90,30.00,10.0,SW,3.5,-,N/A,,Mostly Cloudy,220,2013-05-22 02:56:00
11:56 PM,70.0,66.9,90,30.00,10.0,Calm,Calm,-,N/A,,Scattered Clouds,0,2013-05-22 03:56:00